Location: Asheville, NC
(35.6000°N, 82.5500°W)
Time: 15:38:32
(UTC-04:00)

ISS - Pass Details

Date: 09 May 2026
Orbit: 414 x 424 km, 51.6° (Epoch: 15 May)

Event Time Altitude Azimuth Distance (km) Brightness Sun altitude
Exits shadow 03:36:49 18° 25° (NNE) 1,107 -0.9 -28.7°
Maximum altitude 03:37:01 18° 30° (NNE) 1,104 -0.9 -28.7°
Drops below altitude 10° 03:39:24 10° 75° (ENE) 1,492 -0.4 -28.4°
Sets 03:41:58 0° 95° (E) 2,355 0.5 -28.1°
